JA3VQW-13 Hirakata JP current weather conditions

sailwx.info

Wind from 158

Air temperature 18.3° C
Dewpoint 15.8° C

Last reported at 2014-Oct-21 01:32 UTC.
Time now 2014-Oct-21 02:22 UTC

Location: N 34°48' E 135°40'.
View on Google Maps.

See reports from other nearby stations

  
Tides and Currents Weather Stations Pressure Air Temp Water Temp Dewpoint Dewpoint Depression Visibility Wind Speed Wind Dir Waves Ship Positions
date/time (UTC)wind fromknots sea level pressurealtimeterstation pressurevisibilityair tempwater tempwave heightnotes
2014-Oct-21 01:32 158 18.3
2014-Oct-21 01:02 158 18.3
2014-Oct-21 00:32 158 18.3
2014-Oct-21 00:02 158 18.3
2014-Oct-20 23:33 158 18.3
2014-Oct-20 23:02 158 18.3
2014-Oct-20 22:32 158 18.3
2014-Oct-20 22:02 158 18.3
2014-Oct-20 21:32 158 18.3
2014-Oct-20 21:03 158 18.3
2014-Oct-20 20:32 158 18.3
2014-Oct-20 20:10 158 18.3
2014-Oct-20 19:40 158 18.3
2014-Oct-20 19:10 158 18.3
2014-Oct-20 18:40 158 18.3
2014-Oct-20 18:10 158 18.3
2014-Oct-20 17:40 158 18.3
2014-Oct-20 17:10 158 18.3
2014-Oct-20 16:40 158 18.3
2014-Oct-20 16:10 158 18.3
2014-Oct-20 15:40 158 18.3
2014-Oct-20 15:10 158 18.3
2014-Oct-20 14:40 158 18.3
2014-Oct-20 14:10 158 18.3
2014-Oct-20 13:40 158 18.3
2014-Oct-20 13:10 160 18.3
2014-Oct-20 12:40 248 18.3
2014-Oct-20 12:10 248 18.3
2014-Oct-20 11:40 248 18.3
2014-Oct-20 11:10 248 18.9
2014-Oct-20 10:40 248 18.9
2014-Oct-20 10:10 248 18.9
2014-Oct-20 09:40 248 18.9
2014-Oct-20 09:16 248 18.9
2014-Oct-20 08:46 248 18.9
2014-Oct-20 08:16 292 18.9
2014-Oct-20 07:46 270 18.9
2014-Oct-20 07:16 270 19.4
2014-Oct-20 06:46 158 19.4
2014-Oct-20 06:16 270 20.0
2014-Oct-20 05:46 270 20.6
2014-Oct-20 05:16 270 20.6
2014-Oct-20 04:46 270 20.6
2014-Oct-20 04:16 270 21.1
2014-Oct-20 03:46 270 21.1
2014-Oct-20 03:16 270 21.1
2014-Oct-20 02:46 270 21.1
2014-Oct-20 02:16 315 20.6
2014-Oct-20 01:46 315 21.1
2014-Oct-20 01:16 315 21.7
2014-Oct-20 00:56 315 20.6
2014-Oct-20 00:26 315 20.6
2014-Oct-19 23:56 315 20.0
2014-Oct-19 23:26 187 20.0
2014-Oct-19 22:56 234 20.0
2014-Oct-19 22:45 292 20.0
2014-Oct-19 22:15 292 19.4
2014-Oct-19 21:45 292 19.4
2014-Oct-19 21:15 270 19.4
2014-Oct-19 20:45 282 19.4
2014-Oct-19 20:15 306 19.4
2014-Oct-19 19:45 315 19.4
2014-Oct-19 19:15 315 19.4
2014-Oct-19 18:45 307 19.4
2014-Oct-19 18:15 292 18.9
2014-Oct-19 17:45 248 19.4
2014-Oct-19 17:15 225 19.4
2014-Oct-19 17:09 180 19.4
2014-Oct-19 16:50 180 19.4
2014-Oct-19 16:39 180 19.4
2014-Oct-19 16:06 248 18.9
2014-Oct-19 15:36 246 19.4
2014-Oct-19 15:06 251 19.4
2014-Oct-19 14:36 225 18.9
2014-Oct-19 14:06 202 18.9
2014-Oct-19 13:36 191 18.9
2014-Oct-19 13:06 180 19.4
2014-Oct-19 12:36 270 19.4
2014-Oct-19 12:06 270 18.9
2014-Oct-19 11:36 270 19.4
2014-Oct-19 11:23 315 19.4
2014-Oct-19 10:53 315 20.0
2014-Oct-19 10:22 270 20.6
2014-Oct-19 09:52 278 20.6
2014-Oct-19 09:23 228 21.1
2014-Oct-19 08:53 292 21.7
2014-Oct-19 08:27 292 22.2
2014-Oct-19 07:57 248 23.9
2014-Oct-19 07:27 292 25.6
2014-Oct-19 06:57 090 27.2
2014-Oct-19 06:27 135 31.7
2014-Oct-19 05:57 135 31.7
2014-Oct-19 05:27 135 31.7
2014-Oct-19 04:57 135 31.1
2014-Oct-19 04:27 135 30.6
2014-Oct-19 03:57 135 28.3
2014-Oct-19 03:27 135 28.9
2014-Oct-19 02:57 112 27.8
2014-Oct-19 02:27 270 26.1